When you browse on this site, cookies collect data to enhance your experience and personalize the content and advertising you see.
Visit our Privacy Policy to learn more. By continuing to use the site, you agree to this use of cookies and data.
  • In Czech Republic
  • List of Countries
  • For 7 days
  • Water Temperature
  • Satellite Maps
  • Weather Map
  • Weather Widgets
  • user-avatar
    Login

    Hourly Weather Karminek

    Today, 10 December, Monday

    Time Temperature Precipitation Wind Pressure Humidity
    00:00 +4°C° 0.3 mm 8 mps 735 mmHg 79%
    01:00 +4°C° 0.3 mm 8 mps 735 mmHg 78%
    02:00 +4°C° 0.4 mm 8 mps 736 mmHg 77%
    03:00 +4°C° 0.4 mm 8 mps 736 mmHg 76%
    04:00 +2°C° 0.4 mm 8 mps 737 mmHg 76%
    05:00 +2°C° 0.1 mm 8 mps 737 mmHg 75%
    06:00 +2°C° 0.1 mm 8 mps 738 mmHg 75%
    07:00 +2°C° 0.1 mm 7 mps 739 mmHg 74%
    08:00 +1°C° 0 mm 8 mps 739 mmHg 74%
    09:00 +1°C° 0 mm 8 mps 740 mmHg 73%
    10:00 +1°C° 0 mm 8 mps 741 mmHg 72%
    11:00 +1°C° 0.1 mm 8 mps 741 mmHg 70%
    12:00 +2°C° 0.1 mm 8 mps 741 mmHg 67%
    13:00 +2°C° 0.1 mm 8 mps 741 mmHg 65%
    14:00 +1°C° 0.1 mm 8 mps 741 mmHg 66%
    15:00 +2°C° 0.1 mm 7 mps 742 mmHg 68%
    16:00 +1°C° 0.1 mm 6 mps 742 mmHg 69%
    17:00 +1°C° 0 mm 6 mps 742 mmHg 71%
    18:00 +1°C° 0 mm 6 mps 742 mmHg 72%
    19:00 -1°C° 0 mm 6 mps 742 mmHg 73%
    20:00 -1°C° 0 mm 6 mps 742 mmHg 75%
    21:00 -1°C° 0 mm 6 mps 742 mmHg 77%
    22:00 0°C° 0 mm 5 mps 742 mmHg 80%
    23:00 0°C° 0 mm 5 mps 742 mmHg 81%

    Tomorrow, 11 December, Tuesday

    Time Temperature Precipitation Wind Pressure Humidity
    00:00 0°C° 0 mm 5 mps 742 mmHg 82%
    01:00 0°C° 0 mm 5 mps 742 mmHg 83%
    02:00 0°C° 0.2 mm 5 mps 742 mmHg 84%
    03:00 0°C° 0.2 mm 5 mps 741 mmHg 84%
    04:00 0°C° 0.2 mm 5 mps 741 mmHg 85%
    05:00 0°C° 0.3 mm 5 mps 741 mmHg 85%
    06:00 0°C° 0.3 mm 5 mps 741 mmHg 86%
    07:00 0°C° 0.3 mm 5 mps 741 mmHg 86%
    08:00 0°C° 0.4 mm 4 mps 741 mmHg 87%
    09:00 0°C° 0.4 mm 4 mps 742 mmHg 88%
    10:00 0°C° 0.4 mm 4 mps 742 mmHg 89%
    11:00 0°C° 0.2 mm 4 mps 742 mmHg 89%
    12:00 +2°C° 0.2 mm 3 mps 742 mmHg 89%
    13:00 +2°C° 0.2 mm 3 mps 742 mmHg 90%
    14:00 +2°C° 0.3 mm 3 mps 743 mmHg 91%
    15:00 +1°C° 0.3 mm 3 mps 743 mmHg 93%
    16:00 +2°C° 0.3 mm 2 mps 744 mmHg 94%
    17:00 +1°C° 0.2 mm 3 mps 744 mmHg 94%
    18:00 +1°C° 0.2 mm 3 mps 745 mmHg 94%
    19:00 +1°C° 0.2 mm 3 mps 745 mmHg 95%
    20:00 +1°C° 0.1 mm 3 mps 746 mmHg 93%
    21:00 0°C° 0.1 mm 4 mps 746 mmHg 92%
    22:00 0°C° 0.1 mm 4 mps 747 mmHg 91%
    23:00 -1°C° 0.1 mm 4 mps 747 mmHg 91%

    Day after tomorrow, 12 December, Wednesday

    Time Temperature Precipitation Wind Pressure Humidity
    00:00 -1°C° 0.1 mm 4 mps 747 mmHg 91%
    01:00 -1°C° 0.1 mm 4 mps 748 mmHg 91%
    02:00 -1°C° 0.1 mm 4 mps 748 mmHg 92%
    03:00 -1°C° 0.1 mm 4 mps 748 mmHg 93%
    04:00 -1°C° 0.1 mm 3 mps 749 mmHg 93%
    05:00 -1°C° 0.1 mm 3 mps 749 mmHg 94%
    06:00 -1°C° 0.1 mm 3 mps 749 mmHg 94%
    07:00 -1°C° 0.1 mm 3 mps 750 mmHg 94%
    08:00 -1°C° 0 mm 2 mps 750 mmHg 93%
    09:00 -1°C° 0 mm 2 mps 751 mmHg 91%
    10:00 -1°C° 0 mm 2 mps 751 mmHg 90%
    11:00 -1°C° 0 mm 2 mps 751 mmHg 89%
    12:00 +1°C° 0 mm 2 mps 751 mmHg 87%
    13:00 +2°C° 0 mm 1 mps 751 mmHg 85%
    14:00 +2°C° 0 mm 1 mps 751 mmHg 87%
    15:00 +1°C° 0 mm 1 mps 751 mmHg 90%
    16:00 +1°C° 0 mm 1 mps 751 mmHg 92%
    17:00 0°C° 0 mm 1 mps 751 mmHg 92%
    18:00 0°C° 0 mm 1 mps 752 mmHg 92%
    19:00 0°C° 0 mm 1 mps 752 mmHg 92%
    20:00 0°C° 0 mm 1 mps 752 mmHg 92%
    21:00 -1°C° 0 mm 0 mps 752 mmHg 92%
    22:00 -1°C° 0 mm 0 mps 752 mmHg 92%
    23:00 -1°C° 0 mm 0 mps 752 mmHg 92%

    13 December, Thursday

    Time Temperature Precipitation Wind Pressure Humidity
    00:00 -1°C° 0 mm 0 mps 753 mmHg 92%
    01:00 0°C° 0 mm 1 mps 753 mmHg 92%
    02:00 0°C° 0 mm 1 mps 753 mmHg 92%
    03:00 0°C° 0 mm 1 mps 752 mmHg 92%
    04:00 0°C° 0 mm 1 mps 752 mmHg 92%
    05:00 0°C° 0 mm 1 mps 752 mmHg 92%
    06:00 0°C° 0 mm 1 mps 752 mmHg 92%
    07:00 0°C° 0 mm 1 mps 752 mmHg 92%
    08:00 0°C° 0 mm 1 mps 752 mmHg 91%
    09:00 0°C° 0 mm 1 mps 752 mmHg 90%
    10:00 +1°C° 0 mm 1 mps 753 mmHg 89%
    11:00 +1°C° 0 mm 1 mps 752 mmHg 87%
    12:00 +1°C° 0 mm 1 mps 752 mmHg 85%
    13:00 +1°C° 0 mm 1 mps 752 mmHg 83%
    14:00 +1°C° 0 mm 1 mps 751 mmHg 84%
    15:00 +1°C° 0 mm 1 mps 751 mmHg 84%
    16:00 +1°C° 0 mm 1 mps 751 mmHg 85%
    17:00 +1°C° 0 mm 1 mps 751 mmHg 86%
    18:00 +1°C° 0 mm 1 mps 751 mmHg 86%
    19:00 +1°C° 0 mm 1 mps 751 mmHg 87%
    20:00 +1°C° 0 mm 1 mps 751 mmHg 87%
    21:00 +1°C° 0 mm 1 mps 751 mmHg 88%
    22:00 0°C° 0 mm 1 mps 751 mmHg 89%
    23:00 0°C° 0 mm 1 mps 751 mmHg 89%

    14 December, Friday

    Time Temperature Precipitation Wind Pressure Humidity
    00:00 0°C° 0 mm 1 mps 751 mmHg 90%
    01:00 0°C° 0 mm 1 mps 751 mmHg 90%
    02:00 0°C° 0 mm 1 mps 751 mmHg 91%
    03:00 -2°C° 0 mm 2 mps 751 mmHg 91%
    04:00 -2°C° 0 mm 2 mps 750 mmHg 92%
    05:00 -2°C° 0 mm 2 mps 751 mmHg 91%
    06:00 -2°C° 0 mm 2 mps 751 mmHg 91%
    07:00 -2°C° 0 mm 2 mps 751 mmHg 90%
    08:00 -2°C° 0 mm 2 mps 751 mmHg 89%
    09:00 -2°C° 0 mm 2 mps 751 mmHg 87%
    10:00 -2°C° 0 mm 2 mps 751 mmHg 86%
    11:00 -2°C° 0 mm 2 mps 751 mmHg 84%
    12:00 -1°C° 0 mm 2 mps 751 mmHg 82%
    13:00 -1°C° 0 mm 2 mps 751 mmHg 81%
    14:00 -1°C° 0 mm 2 mps 751 mmHg 83%
    15:00 -2°C° 0 mm 2 mps 751 mmHg 86%
    16:00 -2°C° 0 mm 2 mps 751 mmHg 89%
    17:00 -2°C° 0 mm 2 mps 752 mmHg 89%
    18:00 -2°C° 0 mm 2 mps 752 mmHg 89%
    19:00 -2°C° 0 mm 2 mps 752 mmHg 89%
    20:00 -2°C° 0 mm 2 mps 752 mmHg 90%
    21:00 -2°C° 0 mm 2 mps 752 mmHg 90%
    22:00 -2°C° 0 mm 2 mps 752 mmHg 90%
    23:00 -2°C° 0 mm 2 mps 752 mmHg 90%

    15 December, Saturday

    Time Temperature Precipitation Wind Pressure Humidity
    00:00 -2°C° 0 mm 2 mps 752 mmHg 90%
    01:00 -2°C° 0 mm 2 mps 752 mmHg 90%
    02:00 -2°C° 0 mm 2 mps 752 mmHg 90%
    03:00 -2°C° 0 mm 2 mps 752 mmHg 90%
    04:00 -2°C° 0 mm 3 mps 752 mmHg 90%
    05:00 -2°C° 0 mm 3 mps 752 mmHg 90%
    06:00 -2°C° 0 mm 3 mps 752 mmHg 89%
    07:00 -4°C° 0 mm 3 mps 753 mmHg 89%
    08:00 -2°C° 0 mm 3 mps 753 mmHg 88%
    09:00 -2°C° 0 mm 3 mps 753 mmHg 87%
    10:00 -2°C° 0 mm 3 mps 754 mmHg 85%
    11:00 -2°C° 0 mm 3 mps 754 mmHg 84%
    12:00 -1°C° 0 mm 3 mps 754 mmHg 82%
    13:00 -1°C° 0 mm 3 mps 754 mmHg 81%
    14:00 -1°C° 0 mm 3 mps 754 mmHg 82%
    15:00 -2°C° 0 mm 2 mps 754 mmHg 82%
    16:00 -2°C° 0 mm 2 mps 754 mmHg 83%
    17:00 -2°C° 0 mm 2 mps 754 mmHg 85%
    18:00 -2°C° 0 mm 2 mps 754 mmHg 86%
    19:00 -2°C° 0 mm 2 mps 754 mmHg 88%
    20:00 -2°C° 0 mm 2 mps 754 mmHg 89%
    21:00 -3°C° 0 mm 2 mps 754 mmHg 90%
    22:00 -3°C° 0 mm 2 mps 754 mmHg 91%
    23:00 -3°C° 0 mm 2 mps 754 mmHg 92%
    Show more